Theta_e
310 309 308 307 307 307 306 306 305 305 305 305 305 305 305 306 308 311 313 317 312 308 309 310 312 310 311 312 311 314 314 319 321 316 314 313 312 314 313 314 313 311 310 309 310 306 303 322 323 317 329 332 331 332
308 307 306 307 307 306 306 306 304 304 305 304 305 305 305 305 306 308 311 317 316 309 307 312 314 315 314 313 311 314 311 313 322 318 321 321 315 317 315 308 319 310 316 313 313 311 326 329 328 333 334 334 333 334
307 306 306 306 306 306 305 305 304 304 304 304 304 304 304 304 305 307 311 314 312 306 306 308 306 312 314 314 316 308 313 318 319 319 315 319 318 325 312 313 315 320 322 317 319 318 326 329 332 333 334 333 335 336
306 306 306 306 306 306 305 304 304 304 304 304 304 304 303 304 305 305 310 313 311 307 302 306 314 311 316 317 314 315 315 321 319 316 315 314 315 325 317 318 317 320 323 320 321 324 325 327 329 331 331 334 335 335
306 306 306 306 306 306 305 304 303 303 303 303 304 304 304 303 304 307 310 312 314 307 302 305 309 311 312 314 316 316 315 312 311 311 313 313 319 321 321 321 317 324 320 317 313 326 324 325 328 328 329 330 332 334
305 306 306 306 306 306 304 303 302 302 302 302 303 304 303 303 304 307 303 310 313 312 304 301 308 308 311 312 312 313 315 315 310 309 309 314 319 319 313 311 318 321 327 330 323 326 324 324 324 326 329 329 328 331
305 305 305 306 306 305 303 303 302 302 302 302 303 303 303 304 307 303 303 308 308 312 304 301 304 309 311 312 311 311 314 312 311 309 307 311 314 316 312 308 317 321 324 326 324 321 318 320 318 324 328 326 327 330
305 305 305 305 305 304 303 302 302 301 301 303 303 304 304 304 304 306 310 307 310 310 307 300 303 305 313 309 307 311 307 309 309 307 309 308 310 311 306 313 317 319 320 321 320 321 321 323 326 325 325 323 322 323
304 305 305 305 304 303 302 301 301 301 303 303 304 304 308 306 303 307 309 310 313 309 303 303 300 301 313 312 313 308 311 304 309 305 305 307 305 303 308 311 312 314 315 315 317 317 319 318 315 317 318 320 320 321
304 304 303 302 302 302 301 301 301 302 302 304 306 304 299 306 305 308 308 306 306 307 306 300 307 303 307 309 307 311 310 305 302 306 308 303 302 312 313 313 314 315 315 315 313 313 314 314 316 320 321 324 325 323
303 302 302 302 302 302 302 302 301 301 304 306 303 302 307 305 309 307 300 299 301 298 302 303 302 300 309 301 304 309 307 310 301 305 305 304 304 310 314 314 316 318 318 318 319 319 320 321 322 323 324 326 327 328
303 302 302 302 302 302 302 302 302 305 305 302 304 305 309 306 303 297 295 298 297 296 302 302 304 306 307 308 301 306 302 305 300 313 306 301 307 315 316 317 321 324 323 322 322 322 323 324 326 327 327 328 329 330
302 301 301 302 302 302 302 302 302 302 303 306 305 302 302 300 290 290 288 293 295 300 303 305 302 306 307 305 301 301 298 298 312 304 301 306 317 319 323 324 325 327 327 327 326 327 327 326 328 330 329 330 331 331
302 301 301 301 301 301 302 302 302 303 306 302 297 287 293 291 294 296 297 299 302 305 305 306 303 303 305 301 301 295 299 302 297 296 298 306 319 321 323 324 325 325 326 326 325 326 326 327 327 329 329 331 331 331
302 301 301 302 300 300 302 301 302 309 304 297 297 288 292 298 300 303 303 302 305 307 306 303 303 303 301 299 301 297 295 293 295 296 304 318 321 321 322 323 325 325 326 327 327 327 327 327 327 328 329 330 330 328
300 303 301 301 300 300 301 302 305 306 302 297 295 293 298 297 297 299 300 300 306 306 305 305 299 297 296 297 296 295 292 293 302 311 316 320 321 322 322 322 323 325 326 327 328 327 327 327 327 327 328 327 327 327
303 302 301 301 301 302 301 302 301 294 295 291 293 297 296 298 297 300 299 303 307 301 297 300 294 293 300 296 294 299 297 301 309 313 319 323 322 322 322 322 322 323 324 326 326 327 327 328 326 328 325 323 324 325
302 303 302 301 302 302 304 301 296 294 288 293 291 294 296 297 296 299 302 303 303 302 303 296 301 296 294 292 295 301 304 308 314 316 318 320 322 323 322 322 322 323 323 323 323 324 326 326 325 325 323 326 325 323
302 303 301 302 302 301 297 298 299 291 292 295 295 297 297 296 298 299 302 303 305 308 302 297 295 293 295 300 302 304 308 311 310 313 315 318 321 320 320 321 320 320 321 321 322 323 322 320 318 321 321 319 310 308
300 300 301 301 301 299 291 295 302 293 291 296 297 296 297 297 298 299 298 300 301 300 297 292 294 300 301 306 310 310 311 313 312 310 311 313 315 317 318 319 320 321 321 322 322 308 316 315 316 316 315 309 307 305
299 301 302 302 301 300 296 295 293 294 294 294 297 296 295 300 299 299 297 299 297 296 295 299 300 302 307 308 310 312 311 313 311 312 311 311 314 315 316 318 321 321 321 321 317 312 310 311 311 311 308 305 304 303
302 300 301 302 296 295 294 297 293 295 293 293 294 296 296 296 298 300 304 298 297 299 301 303 304 304 304 306 309 312 313 315 315 313 304 308 314 314 316 318 319 319 321 319 316 313 312 310 308 305 303 303 302 303
301 300 298 296 291 290 288 300 291 294 288 293 295 293 294 297 303 305 299 301 301 305 306 306 308 309 309 311 312 313 314 313 311 314 315 316 316 316 316 316 314 315 314 314 315 311 310 301 303 305 304 302 301 302
299 294 288 288 290 287 294 291 294 293 293 293 292 292 295 300 304 299 296 299 304 308 308 308 308 307 308 308 306 310 313 314 312 312 313 311 309 306 308 306 311 309 308 307 305 306 304 302 298 301 301 303 303 301
287 286 288 283 290 286 286 288 289 290 289 292 291 292 295 302 295 294 295 300 302 302 304 305 305 306 303 305 306 308 311 311 307 305 307 309 307 306 304 304 303 302 306 304 303 301 301 301 301 302 303 301 299 297
282 286 284 286 288 286 288 287 288 289 291 290 292 297 300 295 291 291 294 297 300 302 300 300 300 301 302 303 305 304 304 307 306 302 301 306 305 302 300 298 298 298 302 302 300 299 298 299 298 297 296 293 288 293
282 285 290 293 292 291 289 291 292 290 289 288 292 292 291 287 288 289 296 299 298 299 299 299 300 299 298 298 299 300 300 300 298 297 299 299 299 300 300 298 297 299 302 301 300 298 297 296 295 294 292 292 291 291
287 288 284 289 289 291 287 288 288 288 290 293 292 288 288 286 287 295 298 300 301 300 299 299 298 298 297 298 300 300 299 298 298 299 299 298 300 300 299 298 297 289 300 300 300 299 298 296 293 291 290 290 290 291
285 288 288 285 287 288 288 288 289 291 295 294 290 288 288 294 299 299 301 303 303 301 299 297 297 298 298 298 298 298 300 300 299 296 295 295 295 295 298 299 300 298 296 293 283 290 293 293 292 291 291 290 290 290
289 290 288 288 287 288 292 290 290 295 297 298 297 296 296 297 299 302 300 300 299 299 299 298 297 295 294 294 294 295 298 298 299 297 294 293 294 299 299 298 298 298 297 295 293 291 284 291 289 292 291 291 290 290
299 295 296 298 296 298 300 300 300 299 298 296 298 294 294 296 299 301 301 303 302 302 300 297 296 297 296 295 295 294 294 297 297 298 298 299 299 299 299 298 298 297 296 295 294 293 292 291 291 290 289 288 288 288
304 298 298 295 297 303 304 301 302 301 300 299 299 300 298 297 293 299 303 303 300 299 293 297 297 296 297 298 298 297 290 296 296 296 296 296 297 297 297 297 297 295 294 293 292 292 291 290 290 289 289 288 288 287
301 300 299 298 299 297 303 302 299 297 296 297 298 299 298 297 294 300 304 303 302 301 299 298 298 300 299 298 297 296 294 296 290 284 285 285 285 289 295 295 295 294 293 292 292 291 290 290 289 289 288 287 287 286
Wind_Speed
30 30 29 27 25 22 19 17 14 11 8 5 4 3 4 6 9 6 4 3 5 3 1 3 3 4 3 3 4 6 5 5 5 6 5 4 7 5 5 3 4 7 7 7 3 7 11 4 6 8 8 3 2 6
30 31 29 27 25 22 19 16 14 11 8 5 4 4 4 6 10 10 2 1 3 5 5 3 8 9 8 4 5 1 4 3 5 5 2 2 6 4 6 10 3 6 4 6 4 8 3 1 12 4 6 9 4 6
32 30 28 27 25 22 19 16 13 11 8 6 5 4 5 6 8 10 1 2 4 4 5 5 7 7 9 12 8 5 3 5 3 5 4 3 6 3 8 9 4 5 4 6 3 7 5 8 7 11 11 12 11 7
31 30 27 25 23 20 18 15 13 10 7 6 5 5 4 4 6 8 2 2 3 3 5 5 3 5 2 6 12 12 3 1 4 5 4 4 5 1 5 5 7 5 7 6 7 11 8 4 6 8 11 11 11 14
29 28 26 24 21 19 16 14 11 8 6 4 5 5 3 1 3 3 1 2 3 5 5 3 6 4 6 8 8 10 9 7 5 4 5 5 4 4 6 5 9 8 11 9 10 7 5 9 9 14 12 11 9 9
27 26 24 22 19 18 15 12 9 6 3 2 3 3 2 2 6 4 5 2 2 3 5 4 4 3 4 5 11 10 7 6 6 4 5 5 4 5 6 11 13 12 7 7 7 3 11 16 17 15 8 9 10 10
25 23 22 20 17 16 13 10 7 4 1 1 2 3 3 3 5 3 6 5 1 4 4 4 3 5 1 4 5 6 7 5 6 5 7 10 8 5 9 15 15 11 12 9 10 14 17 17 12 15 12 13 11 11
24 21 19 17 15 13 11 8 5 3 2 4 4 5 3 3 5 3 4 6 4 3 3 4 2 4 1 4 5 5 6 6 7 7 6 9 8 8 10 17 17 19 20 20 20 15 16 15 14 14 14 15 16 14
22 20 19 16 14 11 8 5 3 2 4 6 5 4 5 5 3 4 4 5 4 5 3 3 3 4 1 2 0 5 4 6 5 7 9 8 10 11 11 15 17 19 18 20 19 17 13 15 18 19 19 18 18 17
20 19 17 16 12 9 5 1 2 4 4 4 6 5 4 4 1 5 4 5 4 4 4 4 1 3 4 1 4 3 5 6 7 9 6 13 15 18 20 19 19 18 18 18 18 18 18 18 17 17 17 16 15 16
19 17 16 14 10 7 4 4 4 3 6 3 2 2 3 2 5 4 4 5 4 4 4 3 5 6 1 5 3 2 2 3 5 6 6 6 8 11 16 19 19 18 18 18 17 17 17 17 16 16 17 17 15 15
18 16 14 12 9 6 5 7 3 2 1 3 3 1 2 4 2 4 5 4 5 3 5 3 2 3 1 3 5 3 4 4 7 4 5 5 6 3 6 5 6 7 9 12 12 13 13 13 12 12 13 14 15 14
17 15 12 10 7 5 5 7 7 7 5 3 3 4 2 3 3 5 7 4 4 4 3 0 2 2 3 4 4 4 6 7 1 6 8 6 6 3 6 5 6 3 5 5 4 4 6 7 7 8 10 10 10 9
14 12 9 8 6 4 5 5 6 3 4 1 2 2 4 5 4 2 2 3 7 1 1 3 4 3 2 4 5 5 6 4 7 9 10 7 9 7 7 7 7 7 7 7 6 6 7 7 8 8 9 8 8 7
11 9 7 8 3 2 4 6 6 1 1 1 1 3 4 1 2 2 2 3 2 3 3 4 5 4 4 5 4 5 4 7 6 8 7 8 7 7 7 7 7 7 8 8 8 8 8 8 7 7 8 7 7 5
5 5 9 7 4 3 6 3 2 1 1 2 2 4 3 3 5 5 5 4 2 2 3 3 5 5 7 5 8 9 6 5 2 5 5 4 7 7 8 8 8 8 9 8 7 7 7 8 8 7 7 7 6 6
2 5 7 3 2 1 5 2 2 3 3 1 3 4 5 4 5 2 5 2 1 4 4 4 6 10 5 8 12 6 9 9 8 7 6 8 8 8 8 8 8 8 7 7 8 7 6 5 5 2 4 5 4 4
7 7 8 7 7 3 2 3 1 2 3 4 5 3 4 4 5 5 4 5 4 2 2 3 3 6 7 12 11 8 6 8 4 4 6 10 11 10 8 10 10 9 8 8 7 7 6 5 5 1 4 3 4 3
6 4 3 6 6 3 2 1 2 3 4 3 6 6 5 6 7 8 7 4 4 2 1 3 7 5 11 11 13 12 10 8 8 10 8 9 8 10 11 9 8 9 8 7 6 5 6 8 6 5 4 5 7 8
3 2 5 5 6 2 3 2 1 4 4 2 5 6 6 7 7 7 10 9 8 6 6 6 6 9 11 8 9 10 9 8 8 9 9 7 8 11 11 11 6 7 5 3 4 3 5 5 6 6 7 9 8 8
4 4 3 4 1 2 2 1 4 3 4 5 4 4 6 8 8 9 10 10 9 6 9 10 12 12 12 12 10 9 12 10 10 7 8 7 6 9 9 10 8 6 3 2 5 5 6 6 7 7 8 8 7 7
3 5 3 1 3 2 3 3 4 4 4 5 7 6 6 7 7 8 6 7 8 12 13 11 9 8 11 14 12 12 12 12 12 10 9 9 8 7 8 7 7 7 4 3 4 5 6 7 6 7 6 6 7 7
5 2 2 2 2 1 5 1 4 3 4 3 2 4 4 4 2 2 4 5 8 11 11 11 13 13 11 13 14 14 14 11 10 10 9 6 6 5 6 4 6 5 4 3 2 4 6 8 8 9 9 9 9 9
2 3 2 2 3 3 2 4 5 4 4 4 4 5 4 2 2 5 6 7 5 4 5 6 6 7 8 9 9 11 8 5 6 5 4 3 0 3 4 5 5 5 4 3 4 5 8 7 7 7 6 8 9 8
2 2 3 4 4 4 4 4 4 4 6 6 6 7 3 1 4 4 6 2 1 5 5 7 9 8 7 9 6 1 3 2 2 1 2 2 3 5 6 6 8 8 6 3 8 5 6 6 7 8 8 9 10 9
3 4 5 4 3 5 3 4 4 4 4 4 5 4 2 4 4 3 5 7 7 6 6 6 7 7 6 6 2 4 3 2 4 5 7 7 6 7 7 8 8 9 8 6 7 7 9 7 9 11 12 11 7 9
4 4 4 4 3 2 3 3 3 3 4 4 4 3 2 4 3 2 4 5 4 4 5 5 4 4 4 4 5 5 5 8 8 5 5 7 7 7 7 7 8 4 4 5 7 7 8 9 8 9 9 8 9 8
4 3 4 1 2 1 3 3 3 3 3 2 3 3 2 3 2 2 3 4 5 5 6 7 8 6 6 6 5 5 6 6 6 7 5 7 7 6 8 6 5 6 6 5 6 6 7 8 8 8 8 8 8 7
4 3 2 5 4 3 3 3 3 3 2 1 2 1 2 2 5 2 1 2 3 4 5 5 6 6 6 4 5 5 5 5 6 9 9 7 5 5 4 4 6 7 7 9 13 10 10 8 8 8 8 8 7 7
4 5 4 4 3 2 2 6 3 4 1 1 1 2 2 3 5 5 5 4 4 5 4 3 3 4 4 4 5 6 4 3 3 3 3 4 4 4 5 6 6 6 6 8 9 10 6 8 7 6 6 6 5 5
2 5 5 3 2 3 4 5 4 3 1 2 2 2 2 1 2 4 5 4 3 4 6 7 8 8 7 6 5 5 7 7 9 9 6 5 5 5 5 6 5 5 5 5 5 6 6 6 6 7 7 7 6 6
2 3 5 4 1 3 5 3 2 1 3 3 3 4 5 3 2 2 1 3 3 6 4 6 7 7 6 6 6 7 6 6 6 6 8 6 6 6 6 5 5 5 6 6 6 6 6 6 6 6 6 6 6 7
3 4 6 5 2 1 1 1 2 3 3 2 3 4 4 4 5 3 3 3 4 4 4 4 4 6 7 7 7 6 6 7 8 5 6 7 8 7 3 5 4 5 5 6 6 6 7 7 7 6 6 6 6 6
Wind_Direction
159 155 151 147 148 149 150 151 151 148 142 134 113 74 38 15 3 301 88 24 307 282 212 238 248 244 205 239 280 50 240 186 237 247 253 194 261 181 253 266 215 235 236 233 213 266 281 58 157 244 5 341 302 211
155 149 146 146 146 147 146 147 148 144 139 124 103 68 39 24 3 326 187 136 313 265 355 313 284 285 282 329 317 222 352 313 6 273 220 309 220 191 281 243 150 235 290 310 281 311 79 206 256 268 294 299 324 288
148 142 143 143 144 144 143 144 146 142 132 116 97 75 46 35 14 343 0 4 232 270 236 228 228 229 232 237 247 278 122 347 114 338 331 329 263 289 239 233 269 179 191 245 280 265 269 277 284 263 270 266 284 284
140 140 140 141 141 141 142 143 143 138 127 109 89 75 62 49 19 340 296 35 276 299 279 114 158 227 187 215 214 224 277 69 299 277 288 276 272 228 262 324 264 339 159 239 254 264 293 118 25 359 331 301 273 267
140 137 139 139 140 141 141 142 140 135 124 103 83 76 85 55 340 265 235 25 355 304 335 322 293 247 228 216 204 208 217 229 262 263 235 241 270 247 223 296 250 201 253 238 276 25 310 301 332 325 311 311 305 284
132 134 135 136 139 141 141 143 142 139 127 85 50 53 68 280 283 212 189 125 211 285 275 271 67 181 159 194 213 205 193 207 230 229 251 249 252 278 264 251 257 263 240 264 266 348 311 292 293 292 280 302 302 287
130 130 133 136 136 137 142 145 147 154 164 302 327 332 327 301 275 304 6 48 71 244 258 266 217 131 202 190 174 193 199 213 240 233 233 255 249 206 257 254 252 250 248 238 273 297 289 282 303 314 306 298 301 284
128 128 128 129 132 135 142 146 158 180 228 266 283 293 287 256 257 190 93 192 265 261 252 275 266 211 168 192 187 184 191 202 206 242 240 246 251 226 251 251 256 258 267 273 274 274 266 279 291 286 290 293 288 284
121 124 123 123 128 134 140 149 177 234 267 273 268 209 187 218 182 81 358 172 217 310 293 248 271 100 205 216 202 181 216 214 208 229 229 234 226 227 238 251 252 252 256 266 273 277 272 269 281 284 284 287 286 285
116 117 121 123 123 124 128 138 285 288 269 204 210 211 146 86 20 166 186 182 195 187 226 262 316 249 309 16 183 228 196 244 214 211 235 230 248 254 250 256 266 266 268 275 276 271 279 284 284 287 291 289 284 277
118 119 118 116 115 112 85 11 345 167 197 212 186 76 55 140 208 214 161 212 151 219 204 255 298 286 136 293 346 262 302 269 247 194 221 224 233 240 239 251 258 261 264 264 263 267 270 273 280 286 290 292 292 290
116 112 113 112 104 87 52 20 28 187 58 41 33 143 224 209 198 207 184 160 219 221 152 258 31 299 262 278 264 227 259 231 252 109 237 247 255 328 313 312 314 295 278 268 265 263 270 281 291 294 294 300 303 307
107 108 108 107 99 83 57 39 46 90 177 173 211 161 176 152 179 203 180 180 185 166 100 219 201 243 185 231 246 260 242 245 304 232 235 255 94 58 2 346 350 350 337 317 305 310 318 322 342 341 331 339 334 331
111 110 110 103 93 72 46 32 23 221 252 328 183 122 219 169 216 178 189 66 68 330 297 304 274 222 205 208 244 242 243 272 250 247 244 247 46 354 330 336 327 340 346 339 356 354 352 2 348 358 359 356 346 359
102 104 114 82 80 56 26 14 351 272 313 127 216 181 192 113 144 178 89 174 118 303 335 303 260 231 218 237 225 243 233 237 239 259 262 39 2 358 352 353 348 346 345 348 359 360 2 4 4 10 18 15 25 42
109 110 40 45 52 31 341 284 9 311 146 251 217 221 176 249 200 195 242 210 160 290 281 240 273 265 229 229 210 219 240 236 16 14 11 355 9 357 351 346 352 349 353 357 358 359 355 12 18 26 46 55 72 92
70 64 11 43 45 347 324 313 337 43 13 297 225 248 281 313 291 273 195 225 216 262 251 258 246 221 259 229 232 244 252 279 349 351 6 11 352 346 342 339 345 344 340 342 348 354 353 356 2 22 83 60 72 64
81 79 43 16 323 351 24 8 350 306 262 227 255 256 237 261 279 247 225 206 221 193 248 280 315 253 244 247 249 243 282 300 300 339 358 351 345 341 343 347 345 340 345 346 348 331 314 332 312 283 91 2 334 14
67 44 7 352 342 305 306 124 289 272 250 272 264 267 263 265 256 254 250 238 230 226 195 218 244 237 240 265 282 305 341 346 325 316 311 333 353 342 336 337 336 328 331 338 340 6 33 45 31 12 16 36 72 66
24 340 333 316 300 280 242 160 254 265 269 344 270 263 265 263 264 238 233 218 217 217 219 228 234 261 281 285 306 312 309 299 308 318 323 317 332 331 332 325 310 296 288 338 70 42 76 70 62 63 83 92 95 91
248 39 304 277 284 280 294 278 228 221 254 252 283 302 274 259 225 230 217 212 198 221 230 236 248 261 260 286 272 270 284 291 271 271 295 297 336 319 309 292 272 267 268 46 97 93 79 84 83 84 78 75 69 75
51 295 279 164 265 161 262 218 286 331 263 279 290 255 267 256 243 222 206 208 227 229 232 246 259 246 258 270 274 274 281 284 282 282 258 260 274 300 294 292 296 284 278 176 168 137 119 117 101 94 94 98 90 90
281 258 277 273 305 29 280 323 264 228 251 245 263 253 224 240 260 70 219 215 234 231 236 240 254 264 266 271 276 270 262 267 271 274 295 291 276 285 289 315 352 307 257 102 80 123 121 127 138 137 128 122 114 108
309 292 287 263 234 262 236 220 210 257 249 242 233 260 266 272 169 229 244 250 258 291 262 256 254 265 264 252 269 276 270 285 291 294 315 306 153 62 24 34 19 35 40 105 88 132 106 88 86 102 142 130 110 104
285 257 192 255 215 226 259 246 231 238 244 248 275 273 261 237 255 248 257 259 18 340 342 316 303 292 283 278 277 289 350 279 224 151 337 240 114 106 84 76 55 29 30 54 101 120 107 127 125 105 93 89 90 87
258 201 203 212 213 220 239 262 228 263 289 273 257 286 310 290 259 280 20 347 322 328 337 325 318 310 298 332 125 100 46 60 106 78 24 28 56 84 87 75 63 41 26 14 69 65 81 82 98 101 99 87 69 86
263 257 212 241 279 278 286 282 302 275 259 253 277 300 278 238 261 1 308 354 332 356 355 346 355 31 56 50 45 45 54 58 67 70 56 50 45 38 53 66 68 47 45 52 64 71 86 91 94 91 86 78 68 66
253 269 239 276 289 263 274 278 258 247 244 250 272 247 284 342 312 307 60 21 38 43 40 31 27 30 37 34 47 72 73 75 73 75 73 61 46 54 65 65 62 56 71 61 86 94 95 93 91 93 94 92 88 77
242 221 217 258 231 236 235 240 260 260 258 290 311 304 293 248 349 97 153 43 56 52 54 44 26 18 23 41 40 33 34 32 38 79 77 81 92 77 70 75 93 91 87 77 49 53 69 79 87 89 86 85 80 73
237 170 216 216 224 240 234 189 237 259 206 240 75 21 28 38 24 19 33 25 19 28 53 66 61 55 62 79 71 69 67 65 50 25 34 67 93 105 102 100 92 91 94 99 103 110 136 117 126 103 87 80 75 75
185 207 242 229 200 199 193 177 181 157 120 79 108 87 65 101 62 13 2 3 13 32 47 55 51 40 41 44 40 60 75 56 54 51 44 65 77 77 83 74 70 77 79 87 96 103 106 93 87 86 80 77 69 39
258 327 338 325 340 148 177 235 274 71 136 169 105 154 167 155 110 216 251 302 43 69 62 61 62 57 56 65 71 75 41 62 51 43 49 58 61 67 74 70 71 75 81 84 91 94 92 88 86 85 87 69 55 45
313 354 359 339 322 36 32 264 314 73 26 21 62 59 51 39 64 85 92 24 349 27 77 72 59 70 69 68 72 80 69 74 72 53 44 33 18 1 70 88 93 103 100 96 95 97 88 79 72 66 60 50 44 38